Location: Ostrava
(49.8330°N, 18.2830°E)
Time: 11:12:39
(UTC+01:00)

Vanguard 2 Rocket - Visible Passes

Search period start: 01 February 2015 00:00
Search period end: 11 February 2015 00:00
Orbit: 553 x 3334 km, 32.9° (Epoch: 31 January)

Date Brightness Start Highest point End Pass type
(mag) Time Alt. Az. Time Alt. Az. Time Alt. Az.
01 Feb 10.2 17:38:03 10° S 17:51:12 23° SSE 18:03:03 10° ESE visible
01 Feb 9.5 19:50:26 10° SW 20:06:36 36° S 20:09:05 35° SSE visible
01 Feb 10.0 22:06:58 10° WSW 22:14:59 27° SW 22:14:59 27° SW visible
02 Feb 9.8 18:50:27 10° SW 19:06:42 34° SSE 19:13:53 25° SE visible
02 Feb 9.6 21:05:56 10° WSW 21:19:47 38° SSW 21:19:47 38° SSW visible
02 Feb 10.6 23:23:57 10° WSW 23:25:41 13° WSW 23:25:41 13° WSW visible
03 Feb 10.1 17:51:06 10° SSW 18:06:39 30° SSE 18:18:41 13° ESE visible
03 Feb 9.5 20:05:10 10° SW 20:22:14 40° S 20:24:34 39° SSE visible
03 Feb 10.1 22:22:30 10° WSW 22:30:28 26° SW 22:30:28 26° SW visible
04 Feb 9.7 19:04:52 10° SW 19:22:15 39° S 19:29:21 29° SE visible
04 Feb 9.7 21:21:16 10° WSW 21:35:13 38° SSW 21:35:13 38° SSW visible
04 Feb 10.7 23:40:05 10° W 23:41:07 12° WSW 23:41:07 12° WSW visible
05 Feb 10.0 18:05:05 10° SW 18:22:04 36° SSE 18:34:05 16° ESE visible
05 Feb 9.5 20:20:18 10° WSW 20:37:49 42° S 20:39:58 41° SSE visible
05 Feb 10.2 22:38:18 10° W 22:45:52 24° WSW 22:45:52 24° WSW visible
06 Feb 10.4 17:06:00 10° SSW 17:21:52 32° SSE 17:36:50 10° E visible
06 Feb 9.6 19:19:44 10° WSW 19:37:47 43° S 19:44:42 31° SE visible
06 Feb 9.8 21:36:50 10° WSW 21:50:35 36° SW 21:50:35 36° SW visible
07 Feb 10.0 18:19:41 10° SW 18:37:31 41° SSE 18:49:25 19° ESE visible
07 Feb 9.5 20:35:42 10° WSW 20:53:20 42° S 20:55:19 41° S visible
07 Feb 10.3 22:54:24 10° W 23:01:12 21° WSW 23:01:12 21° WSW visible
08 Feb 10.3 17:20:13 10° SW 17:37:11 38° SSE 17:53:07 10° E visible
08 Feb 9.6 19:34:58 10° WSW 19:53:17 44° S 20:00:02 33° SE visible
08 Feb 9.9 21:52:39 10° W 22:05:55 32° SW 22:05:55 32° SW visible
09 Feb 10.0 18:34:43 10° WSW 18:52:58 45° S 19:04:44 21° ESE visible
09 Feb 9.7 20:51:20 10° WSW 21:08:43 39° SSW 21:10:38 38° S visible
09 Feb 10.5 23:11:02 10° W 23:16:31 17° WSW 23:16:31 17° WSW visible
10 Feb 10.2 17:35:01 10° SW 17:52:32 43° SSE 18:09:08 10° ESE visible
10 Feb 9.7 19:50:27 10° WSW 20:08:44 43° S 20:15:21 33° SSE visible
10 Feb 10.1 22:08:46 10° W 22:21:14 28° SW 22:21:14 28° SW visible
